Regional Weather Roundup
Issued by NWS

Home | Current Version | Previous Version | Text Only | Print | Product List | Glossary On
Versions: 1 2 3 4 5 6 7 8 9 10 11 12 13 14 15 16 17 18 19 20 21 22 23 24 25 26 27 28 29 30 31 32 33 34 35 36 37 38 39 40 41 42 43 44 45 46 47 48 49 50
000
ASUS45 KBOI 280510
RWRID
WEATHER ROUNDUP FOR IDAHO
NATIONAL WEATHER SERVICE BOISE ID
1000 PM MST TUE JAN 27 2015

NOTE: "FAIR" INDICATES FEW OR NO CLOUDS BELOW 12000 FEET
WITH NO SIGNIFICANT WEATHER AND/OR OBSTRUCTIONS TO VISIBILITY

IDZ012-014-280600-
SOUTHWEST IDAHO


CITY           SKY/WX    TMP DP  RH WIND       PRES   REMARKS
BOISE          CLOUDY    37  36  96 CALM      30.16S FOG
CALDWELL       CLOUDY    36  30  80 SW3       30.20R
MOUNTAIN HOME  LGT RAIN  36  36 100 W5        30.16R VSB 3/4 WCI  32
$$

IDZ016-017-280600-
SOUTHCENTRAL IDAHO


CITY           SKY/WX    TMP DP  RH WIND       PRES   REMARKS
BURLEY         CLOUDY    41  39  93 W6        30.12R
JEROME         LGT RAIN  40  38  93 S6        30.14R
TWIN FALLS     LGT RAIN  43  39  86 S8        30.14R
$$

IDZ019>023-280600-
SOUTHEAST IDAHO


CITY           SKY/WX    TMP DP  RH WIND       PRES   REMARKS
IDAHO FALLS    CLOUDY    37  34  89 SW6       30.12S WCI  32
POCATELLO      CLOUDY    40  37  89 SW9       30.12S WCI  34
REXBURG        LGT RAIN  39  34  82 N5        30.12S
$$

IDZ006-010-011-018-031-032-280600-
CENTRAL IDAHO MOUNTAINS


CITY           SKY/WX    TMP DP  RH WIND       PRES   REMARKS
MCCALL         CLOUDY    34  31  88 E3        30.10S
HAILEY         LGT RAIN  36  36 100 NW5       30.14R WCI  32
STANLEY          N/A     34  32  92 CALM      30.12S
SALMON         CLOUDY   N/A N/A N/A CALM      30.12R
CHALLIS        CLOUDY    34  30  85 CALM      30.10R
$$

IDZ002-004-006-007-026-280600-
NORTHERN IDAHO


CITY           SKY/WX    TMP DP  RH WIND       PRES   REMARKS
LEWISTON       CLOUDY    43  39  86 CALM      30.11R
LOWELL           N/A     37  34  89 NW6       30.15R WCI  32
COEUR D`ALENE  MOCLDY    37  34  87 SW8       30.07R WCI  31
MULLAN PASS    MOCLDY    34  24  67 VRB7      30.04R WCI  28
$$


USA.gov is the U.S. government's official web portal to all federal, state and local government web resources and services.